When you browse on this site, cookies collect data to enhance your experience and personalize the content and advertising you see.
Visit our Privacy Policy to learn more. By continuing to use the site, you agree to this use of cookies and data.
  • In United Kingdom
  • List of Countries
  • For 7 days
  • Water Temperature
  • Satellite Maps
  • Weather Map
  • Weather Widgets
  • user-avatar
    Login

    Hourly Weather Livingstone

    Today, 21 March, Thursday

    Time Temperature Precipitation Wind Pressure Humidity
    00:00 +26°C° 0 mm 1 mps 681 mmHg 38%
    01:00 +25°C° 0 mm 1 mps 681 mmHg 40%
    02:00 +24°C° 0 mm 2 mps 681 mmHg 42%
    03:00 +24°C° 0 mm 1 mps 681 mmHg 44%
    04:00 +23°C° 0 mm 1 mps 681 mmHg 46%
    05:00 +22°C° 0 mm 1 mps 681 mmHg 48%
    06:00 +24°C° 0 mm 1 mps 681 mmHg 46%
    07:00 +25°C° 0 mm 1 mps 682 mmHg 44%
    08:00 +27°C° 0 mm 1 mps 682 mmHg 42%
    09:00 +30°C° 0 mm 2 mps 683 mmHg 35%
    10:00 +34°C° 0 mm 2 mps 683 mmHg 27%
    11:00 +37°C° 0 mm 3 mps 684 mmHg 20%
    12:00 +38°C° 0 mm 3 mps 683 mmHg 19%
    13:00 +40°C° 0 mm 4 mps 683 mmHg 18%
    14:00 +40°C° 0 mm 4 mps 682 mmHg 17%
    15:00 +40°C° 0 mm 4 mps 682 mmHg 17%
    16:00 +38°C° 0 mm 3 mps 681 mmHg 18%
    17:00 +38°C° 0 mm 3 mps 681 mmHg 19%
    18:00 +35°C° 0 mm 2 mps 681 mmHg 23%
    19:00 +32°C° 0 mm 1 mps 681 mmHg 27%
    20:00 +29°C° 0 mm 1 mps 681 mmHg 31%
    21:00 +29°C° 0 mm 1 mps 681 mmHg 31%
    22:00 +28°C° 0 mm 1 mps 681 mmHg 32%
    23:00 +28°C° 0 mm 1 mps 682 mmHg 33%

    Tomorrow, 22 March, Friday

    Time Temperature Precipitation Wind Pressure Humidity
    00:00 +27°C° 0 mm 1 mps 682 mmHg 36%
    01:00 +26°C° 0 mm 1 mps 682 mmHg 38%
    02:00 +25°C° 0 mm 1 mps 681 mmHg 41%
    03:00 +24°C° 0 mm 1 mps 681 mmHg 44%
    04:00 +23°C° 0 mm 2 mps 681 mmHg 47%
    05:00 +21°C° 0 mm 2 mps 681 mmHg 50%
    06:00 +24°C° 0 mm 2 mps 682 mmHg 50%
    07:00 +25°C° 0 mm 3 mps 682 mmHg 49%
    08:00 +26°C° 0 mm 3 mps 683 mmHg 49%
    09:00 +29°C° 0 mm 3 mps 683 mmHg 41%
    10:00 +33°C° 0 mm 3 mps 684 mmHg 34%
    11:00 +36°C° 0 mm 4 mps 684 mmHg 26%
    12:00 +37°C° 0 mm 4 mps 684 mmHg 24%
    13:00 +39°C° 0 mm 5 mps 683 mmHg 22%
    14:00 +40°C° 0 mm 5 mps 683 mmHg 20%
    15:00 +39°C° 0 mm 5 mps 682 mmHg 22%
    16:00 +37°C° 0 mm 4 mps 682 mmHg 23%
    17:00 +37°C° 0 mm 4 mps 681 mmHg 24%
    18:00 +34°C° 0 mm 3 mps 681 mmHg 31%
    19:00 +30°C° 0 mm 3 mps 681 mmHg 38%
    20:00 +27°C° 0 mm 2 mps 682 mmHg 45%
    21:00 +26°C° 0 mm 2 mps 682 mmHg 48%
    22:00 +25°C° 0 mm 2 mps 682 mmHg 51%
    23:00 +24°C° 0 mm 1 mps 683 mmHg 54%

    Day after tomorrow, 23 March, Saturday

    Time Temperature Precipitation Wind Pressure Humidity
    00:00 +24°C° 0 mm 2 mps 683 mmHg 56%
    01:00 +23°C° 0 mm 2 mps 683 mmHg 58%
    02:00 +21°C° 0 mm 2 mps 682 mmHg 60%
    03:00 +21°C° 0 mm 2 mps 682 mmHg 63%
    04:00 +21°C° 0 mm 2 mps 682 mmHg 66%
    05:00 +20°C° 0 mm 2 mps 682 mmHg 69%
    06:00 +21°C° 0 mm 3 mps 683 mmHg 68%
    07:00 +24°C° 0 mm 3 mps 684 mmHg 67%
    08:00 +25°C° 0 mm 4 mps 684 mmHg 66%
    09:00 +28°C° 0 mm 4 mps 685 mmHg 58%
    10:00 +30°C° 0 mm 4 mps 685 mmHg 50%
    11:00 +34°C° 0 mm 4 mps 685 mmHg 41%
    12:00 +35°C° 0 mm 4 mps 685 mmHg 37%
    13:00 +36°C° 0 mm 4 mps 684 mmHg 32%
    14:00 +37°C° 0 mm 4 mps 683 mmHg 27%
    15:00 +37°C° 0 mm 4 mps 683 mmHg 28%
    16:00 +36°C° 0 mm 4 mps 682 mmHg 30%
    17:00 +35°C° 0 mm 4 mps 681 mmHg 31%
    18:00 +33°C° 0 mm 4 mps 682 mmHg 38%
    19:00 +29°C° 0 mm 3 mps 682 mmHg 46%
    20:00 +26°C° 0 mm 2 mps 682 mmHg 53%
    21:00 +26°C° 0 mm 2 mps 682 mmHg 56%
    22:00 +25°C° 0 mm 2 mps 682 mmHg 59%
    23:00 +24°C° 0 mm 2 mps 682 mmHg 61%

    24 March, Sunday

    Time Temperature Precipitation Wind Pressure Humidity
    00:00 +23°C° 0 mm 1 mps 682 mmHg 64%
    01:00 +23°C° 0 mm 1 mps 682 mmHg 67%
    02:00 +22°C° 0 mm 1 mps 682 mmHg 70%
    03:00 +22°C° 0 mm 1 mps 682 mmHg 75%
    04:00 +21°C° 0 mm 1 mps 682 mmHg 79%
    05:00 +21°C° 0 mm 1 mps 682 mmHg 83%
    06:00 +21°C° 0 mm 2 mps 683 mmHg 79%
    07:00 +23°C° 0 mm 2 mps 683 mmHg 75%
    08:00 +25°C° 0 mm 3 mps 684 mmHg 71%
    09:00 +27°C° 0 mm 3 mps 684 mmHg 61%
    10:00 +30°C° 0 mm 3 mps 685 mmHg 51%
    11:00 +33°C° 0 mm 3 mps 685 mmHg 42%
    12:00 +35°C° 0 mm 3 mps 684 mmHg 37%
    13:00 +36°C° 0 mm 3 mps 683 mmHg 32%
    14:00 +37°C° 0 mm 3 mps 682 mmHg 27%
    15:00 +36°C° 0 mm 4 mps 682 mmHg 28%
    16:00 +36°C° 0 mm 4 mps 681 mmHg 30%
    17:00 +35°C° 0 mm 4 mps 680 mmHg 31%
    18:00 +31°C° 0 mm 3 mps 681 mmHg 38%
    19:00 +29°C° 0 mm 3 mps 681 mmHg 46%
    20:00 +26°C° 0 mm 2 mps 681 mmHg 53%
    21:00 +25°C° 0 mm 2 mps 681 mmHg 56%
    22:00 +25°C° 0 mm 2 mps 681 mmHg 58%
    23:00 +24°C° 0 mm 1 mps 681 mmHg 60%

    25 March, Monday

    Time Temperature Precipitation Wind Pressure Humidity
    00:00 +23°C° 0 mm 1 mps 681 mmHg 60%
    01:00 +23°C° 0 mm 1 mps 681 mmHg 61%
    02:00 +22°C° 0 mm 1 mps 681 mmHg 61%
    03:00 +22°C° 0 mm 1 mps 681 mmHg 65%
    04:00 +21°C° 0 mm 1 mps 681 mmHg 69%
    05:00 +21°C° 0 mm 1 mps 681 mmHg 73%
    06:00 +22°C° 0 mm 1 mps 682 mmHg 69%
    07:00 +23°C° 0 mm 1 mps 683 mmHg 66%
    08:00 +25°C° 0 mm 1 mps 683 mmHg 62%
    09:00 +28°C° 0 mm 1 mps 684 mmHg 54%
    10:00 +30°C° 0 mm 2 mps 684 mmHg 46%
    11:00 +34°C° 0 mm 2 mps 684 mmHg 38%
    12:00 +35°C° 0 mm 2 mps 683 mmHg 33%
    13:00 +37°C° 0 mm 2 mps 682 mmHg 29%
    14:00 +38°C° 0 mm 3 mps 682 mmHg 24%
    15:00 +37°C° 0 mm 3 mps 681 mmHg 24%
    16:00 +37°C° 0 mm 3 mps 681 mmHg 25%
    17:00 +36°C° 0 mm 3 mps 680 mmHg 25%
    18:00 +34°C° 0 mm 3 mps 680 mmHg 31%
    19:00 +30°C° 0 mm 3 mps 681 mmHg 37%
    20:00 +27°C° 0 mm 2 mps 681 mmHg 44%
    21:00 +26°C° 0 mm 2 mps 681 mmHg 46%
    22:00 +26°C° 0 mm 2 mps 681 mmHg 48%
    23:00 +25°C° 0 mm 1 mps 681 mmHg 51%

    26 March, Tuesday

    Time Temperature Precipitation Wind Pressure Humidity
    00:00 +24°C° 0 mm 1 mps 681 mmHg 51%
    01:00 +24°C° 0 mm 1 mps 681 mmHg 51%
    02:00 +23°C° 0 mm 1 mps 681 mmHg 51%
    03:00 +23°C° 0 mm 1 mps 681 mmHg 52%
    04:00 +22°C° 0 mm 1 mps 681 mmHg 53%
    05:00 +22°C° 0 mm 1 mps 681 mmHg 55%
    06:00 +23°C° 0 mm 1 mps 682 mmHg 52%
    07:00 +24°C° 0 mm 1 mps 683 mmHg 49%
    08:00 +23°C° 0 mm 0 mps 684 mmHg 46%
    09:00 +29°C° 0 mm 1 mps 684 mmHg 39%
    10:00 +32°C° 0 mm 1 mps 684 mmHg 33%
    11:00 +36°C° 0 mm 1 mps 685 mmHg 27%
    12:00 +37°C° 0 mm 2 mps 684 mmHg 24%
    13:00 +38°C° 0 mm 3 mps 683 mmHg 22%
    14:00 +40°C° 0 mm 4 mps 683 mmHg 20%
    15:00 +38°C° 0 mm 4 mps 682 mmHg 21%
    16:00 +37°C° 0 mm 4 mps 682 mmHg 21%
    17:00 +37°C° 0 mm 4 mps 682 mmHg 22%
    18:00 +34°C° 0 mm 4 mps 682 mmHg 28%
    19:00 +30°C° 0 mm 3 mps 682 mmHg 34%
    20:00 +27°C° 0 mm 2 mps 682 mmHg 40%
    21:00 +27°C° 0 mm 2 mps 682 mmHg 41%
    22:00 +26°C° 0 mm 2 mps 683 mmHg 42%
    23:00 +26°C° 0 mm 1 mps 683 mmHg 44%
    Show more